Flag for Turkey Weather past 2 weeks in Istanbul, Turkey

Now
55 °F

Sprinkles. Passing clouds.


Feels Like: 54 °F
Forecast: 51 / 68 °F
Wind: 6 mph from Southeast

Location: Istanbul Ataturk Airport

Current Time: Apr 26, 2015 at 4:21:44 AM

Latest Report: Apr 26, 2015 at 3:50 AM


Visibility: 5 mi

Pressure: 30.07 "Hg

Humidity: 82%

Dew point: 50 °F

Location of IstanbulLocation

Historic Weather in Istanbul — Graph

°F

Istanbul temperature yesterday

Maximum temperature yesterday: 63 °F (at 1:50 PM)
Minimum temperature yesterday: 48 °F (at 5:20 AM)
Average temperature yesterday: 57 °F

Past Weeks' High & Low Weather Summary

 TemperatureHumidityPressure
High70 °F (Apr 17, 4:20 PM)100% (Apr 16, 8:01 AM)30.30 "Hg (Apr 16, 8:01 AM)
Low39 °F (Apr 11, 4:20 AM)29% (Apr 24, 3:20 PM)29.83 "Hg (Apr 18, 5:50 PM)
Average53 °F67%30.11 "Hg
* Reported Apr 11 2:20 AM — Apr 26 2:50 AM, Istanbul, Weather by CustomWeather, © 2015

Note: Actual official high and low records may vary slightly from our data, if they occured in-between our weather recording intervals... More about our weather records

Advertising

Istanbul weather history for previous 24 hours

 ConditionsComfort  
Time TempWeatherWind HumidityBarometerVisibility
2:50 AM
Sun, Apr 26
55 °FSprinkles. Passing clouds.5 mph82%30.07 "Hg5 mi
2:20 AM55 °FPassing clouds.6 mph77%30.07 "HgN/A
1:50 AM55 °FPartly cloudy.6 mph77%30.07 "HgN/A
1:20 AM57 °FSprinkles. Partly cloudy.7 mph72%30.07 "Hg5 mi
12:50 AM55 °FSprinkles. Partly cloudy.7 mph77%30.09 "Hg5 mi
11:50 PM
Sat, Apr 25
55 °FPassing clouds.7 mph77%30.09 "HgN/A
11:20 PM57 °FPassing clouds.5 mph67%30.09 "HgN/A
10:50 PM55 °FPartly cloudy.6 mph77%30.09 "HgN/A
10:20 PM59 °FPassing clouds.No wind59%30.09 "HgN/A
9:50 PM57 °FPartly cloudy.5 mph67%30.12 "HgN/A
9:20 PM57 °FPartly cloudy.7 mph72%30.12 "HgN/A
8:50 PM57 °FSprinkles. Broken clouds.8 mph77%30.09 "HgN/A
8:20 PM57 °FSprinkles. Broken clouds.13 mph72%30.09 "HgN/A
7:50 PM59 °FSprinkles. Broken clouds.6 mph68%30.09 "Hg5 mi
7:20 PM59 °FSprinkles. Broken clouds.7 mph68%30.09 "Hg5 mi
6:50 PM59 °FSprinkles. Broken clouds.9 mph68%30.09 "Hg4 mi
6:20 PM57 °FSprinkles. Broken clouds.13 mph77%30.09 "Hg4 mi
5:50 PM59 °FSprinkles. Broken clouds.15 mph63%30.09 "HgN/A
5:20 PM61 °FPartly sunny.7 mph52%30.07 "HgN/A
4:50 PM63 °FPartly sunny.7 mph45%30.07 "HgN/A
4:20 PM63 °FPartly sunny.7 mph45%30.07 "HgN/A
3:50 PM63 °FPartly sunny.7 mph45%30.07 "HgN/A
3:20 PM63 °FPartly sunny.8 mph45%30.09 "HgN/A
2:50 PM63 °FSunny.9 mph42%30.09 "Hg10 mi
2:20 PM63 °FSunny.8 mph45%30.09 "Hg10 mi
1:50 PM63 °FSunny.9 mph45%30.12 "Hg10 mi
1:20 PM61 °FSunny.8 mph48%30.12 "Hg10 mi
12:50 PM61 °FSunny.7 mph52%30.12 "Hg10 mi
12:20 PM59 °FSunny.8 mph59%30.12 "Hg10 mi
11:50 AM61 °FSunny.8 mph52%30.12 "Hg10 mi
11:20 AM59 °FPassing clouds.7 mph55%30.12 "HgN/A
10:50 AM59 °FPassing clouds.5 mph59%30.12 "HgN/A
10:20 AM59 °FPassing clouds.6 mph51%30.12 "HgN/A
9:50 AM61 °FSunny.9 mph45%30.12 "Hg10 mi
9:20 AM61 °FSunny.10 mph42%30.12 "Hg10 mi
8:50 AM57 °FPassing clouds.5 mph55%30.12 "HgN/A
8:20 AM55 °FPassing clouds.5 mph67%30.12 "HgN/A
7:50 AM54 °FSunny.1 mph77%30.12 "Hg10 mi
7:20 AM52 °FSunny.2 mph82%30.12 "Hg10 mi
6:50 AM52 °FClear.2 mph82%30.09 "Hg10 mi
6:20 AM52 °FClear.1 mph77%30.09 "Hg10 mi
5:50 AM50 °FClear.No wind82%30.09 "Hg10 mi
5:20 AM48 °FClear.1 mph87%30.09 "Hg10 mi
4:50 AM50 °FClear.1 mph82%30.09 "Hg10 mi
4:20 AM50 °FClear.1 mph82%30.09 "Hg10 mi
Weather by CustomWeather, © 2015

See weather overviewHow to use our weather pages